Time,TemperatureF,DewpointF,PressureIn,WindDirection,WindDirectionDegrees,WindSpeedMPH,WindSpeedGustMPH,Humidity,HourlyPrecipIn,Conditions,Clouds,dailyrainin,SoftwareType,DateUTC
2013-02-04 00:16:00,18.3,11.0,30.01,WSW,239,2.0,-999.0,72,-99.99,,,0.00,weatherlink.com 1.10,2013-02-04 05:16:00,
2013-02-04 00:31:00,18.4,11.0,30.01,West,264,8.0,-999.0,72,-99.99,,,0.00,weatherlink.com 1.10,2013-02-04 05:31:00,
2013-02-04 00:46:00,18.4,11.0,30.02,WNW,288,7.0,-999.0,72,-99.99,,,0.00,weatherlink.com 1.10,2013-02-04 05:46:00,
2013-02-04 01:01:00,18.4,11.0,30.01,West,272,6.0,-999.0,72,-99.99,,,0.00,weatherlink.com 1.10,2013-02-04 06:01:00,
2013-02-04 01:16:00,18.4,11.0,30.01,WSW,256,6.0,-999.0,72,-99.99,,,0.00,weatherlink.com 1.10,2013-02-04 06:16:00,
2013-02-04 01:31:00,18.4,10.0,30.02,WNW,287,5.0,-999.0,71,-99.99,,,0.00,weatherlink.com 1.10,2013-02-04 06:31:00,
2013-02-04 01:46:00,18.6,10.0,30.01,SSW,193,9.0,-999.0,70,-99.99,,,0.00,weatherlink.com 1.10,2013-02-04 06:46:00,
2013-02-04 02:01:00,18.4,10.0,30.02,WSW,253,2.0,-999.0,71,-99.99,,,0.00,weatherlink.com 1.10,2013-02-04 07:01:00,
2013-02-04 02:16:00,18.4,10.0,30.02,West,278,6.0,-999.0,71,-99.99,,,0.00,weatherlink.com 1.10,2013-02-04 07:16:00,
2013-02-04 02:31:00,18.1,11.0,30.02,West,272,5.0,-999.0,73,-99.99,,,0.00,weatherlink.com 1.10,2013-02-04 07:31:00,
2013-02-04 02:46:00,17.8,11.0,30.02,WSW,237,3.0,-999.0,76,-99.99,,,0.00,weatherlink.com 1.10,2013-02-04 07:46:00,
2013-02-04 03:01:00,17.7,12.0,30.02,SW,236,2.0,-999.0,79,-99.99,,,0.00,weatherlink.com 1.10,2013-02-04 08:01:00,
2013-02-04 03:16:00,17.8,13.0,30.02,SW,224,2.0,-999.0,80,-99.99,,,0.00,weatherlink.com 1.10,2013-02-04 08:16:00,
2013-02-04 03:31:00,18.0,13.0,30.02,SW,229,3.0,-999.0,80,-99.99,,,0.00,weatherlink.com 1.10,2013-02-04 08:31:00,
2013-02-04 03:46:00,18.0,13.0,30.02,WSW,246,2.0,-999.0,80,-99.99,,,0.00,weatherlink.com 1.10,2013-02-04 08:46:00,
2013-02-04 04:01:00,17.8,13.0,30.02,WSW,241,0.0,-999.0,81,-99.99,,,0.00,weatherlink.com 1.10,2013-02-04 09:01:00,
2013-02-04 04:16:00,17.8,14.0,30.03,WSW,241,0.0,-999.0,83,-99.99,,,0.00,weatherlink.com 1.10,2013-02-04 09:16:00,
2013-02-04 04:31:00,17.7,13.0,30.03,WSW,237,0.0,-999.0,83,-99.99,,,0.00,weatherlink.com 1.10,2013-02-04 09:31:00,
2013-02-04 04:46:00,17.8,14.0,30.03,SSW,196,2.0,-999.0,84,-99.99,,,0.00,weatherlink.com 1.10,2013-02-04 09:46:00,
2013-02-04 05:01:00,18.0,14.0,30.04,WSW,239,2.0,-999.0,83,-99.99,,,0.00,weatherlink.com 1.10,2013-02-04 10:01:00,
2013-02-04 05:16:00,18.3,13.0,30.04,WSW,239,5.0,-999.0,80,-99.99,,,0.00,weatherlink.com 1.10,2013-02-04 10:16:00,
2013-02-04 05:31:00,18.3,13.0,30.05,WSW,247,2.0,-999.0,79,-99.99,,,0.00,weatherlink.com 1.10,2013-02-04 10:31:00,
2013-02-04 05:46:00,18.4,13.0,30.05,WNW,298,2.0,-999.0,78,-99.99,,,0.00,weatherlink.com 1.10,2013-02-04 10:46:00,
2013-02-04 06:01:00,18.6,12.0,30.05,West,261,0.0,-999.0,75,-99.99,,,0.00,weatherlink.com 1.10,2013-02-04 11:01:00,
2013-02-04 06:16:00,18.6,12.0,30.05,West,271,5.0,-999.0,74,-99.99,,,0.00,weatherlink.com 1.10,2013-02-04 11:16:00,
2013-02-04 06:31:00,18.6,12.0,30.05,West,263,1.0,-999.0,75,-99.99,,,0.00,weatherlink.com 1.10,2013-02-04 11:31:00,
2013-02-04 06:46:00,18.0,13.0,30.06,NW,308,0.0,-999.0,80,-99.99,,,0.00,weatherlink.com 1.10,2013-02-04 11:46:00,
2013-02-04 07:01:00,17.8,12.0,30.06,WSW,246,1.0,-999.0,77,-99.99,,,0.00,weatherlink.com 1.10,2013-02-04 12:01:00,
2013-02-04 07:16:00,18.3,10.0,30.06,WSW,241,6.0,-999.0,70,-99.99,,,0.00,weatherlink.com 1.10,2013-02-04 12:16:00,
2013-02-04 07:31:00,18.4,9.0,30.06,WSW,254,5.0,-999.0,68,-99.99,,,0.00,weatherlink.com 1.10,2013-02-04 12:31:00,
2013-02-04 07:46:00,18.4,9.0,30.05,SW,215,0.0,-999.0,68,-99.99,,,0.00,weatherlink.com 1.10,2013-02-04 12:46:00,
2013-02-04 08:01:00,18.6,10.0,30.05,West,260,4.0,-999.0,68,-99.99,,,0.00,weatherlink.com 1.10,2013-02-04 13:01:00,
2013-02-04 08:16:00,18.8,10.0,30.05,SW,223,5.0,-999.0,68,-99.99,,,0.00,weatherlink.com 1.10,2013-02-04 13:16:00,
2013-02-04 08:31:00,19.1,10.0,30.05,South,189,3.0,-999.0,68,-99.99,,,0.00,weatherlink.com 1.10,2013-02-04 13:31:00,
2013-02-04 08:46:00,19.5,11.0,30.05,South,188,4.0,-999.0,69,-99.99,,,0.00,weatherlink.com 1.10,2013-02-04 13:46:00,
2013-02-04 09:01:00,19.7,12.0,30.04,SW,233,5.0,-999.0,71,-99.99,,,0.00,weatherlink.com 1.10,2013-02-04 14:01:00,
2013-02-04 09:16:00,19.9,11.0,30.04,South,191,5.0,-999.0,69,-99.99,,,0.00,weatherlink.com 1.10,2013-02-04 14:16:00,
2013-02-04 09:31:00,20.0,11.0,30.04,SSW,205,6.0,-999.0,69,-99.99,,,0.00,weatherlink.com 1.10,2013-02-04 14:31:00,
2013-02-04 09:46:00,20.2,11.0,30.03,SSW,198,6.0,-999.0,68,-99.99,,,0.00,weatherlink.com 1.10,2013-02-04 14:46:00,
2013-02-04 10:02:00,21.1,12.0,30.02,WSW,250,6.0,-999.0,67,-99.99,,,0.00,weatherlink.com 1.10,2013-02-04 15:02:00,
2013-02-04 10:17:00,21.3,12.0,30.01,SSE,154,3.0,-999.0,66,-99.99,,,0.00,weatherlink.com 1.10,2013-02-04 15:17:00,
2013-02-04 10:32:00,22.1,12.0,29.99,SW,222,2.0,-999.0,64,-99.99,,,0.00,weatherlink.com 1.10,2013-02-04 15:32:00,
2013-02-04 10:47:00,22.4,11.0,29.99,WSW,239,2.0,-999.0,63,-99.99,,,0.00,weatherlink.com 1.10,2013-02-04 15:47:00,
2013-02-04 11:02:00,22.9,11.0,29.99,WSW,257,8.0,-999.0,60,-99.99,,,0.00,weatherlink.com 1.10,2013-02-04 16:02:00,
2013-02-04 11:17:00,23.2,10.0,29.99,SW,215,5.0,-999.0,58,-99.99,,,0.00,weatherlink.com 1.10,2013-02-04 16:17:00,
2013-02-04 11:32:00,23.9,11.0,29.97,South,171,5.0,-999.0,58,-99.99,,,0.00,weatherlink.com 1.10,2013-02-04 16:32:00,
2013-02-04 11:47:00,24.1,11.0,29.97,South,171,3.0,-999.0,58,-99.99,,,0.00,weatherlink.com 1.10,2013-02-04 16:47:00,
2013-02-04 12:02:00,24.4,12.0,29.96,SW,232,3.0,-999.0,59,-99.99,,,0.00,weatherlink.com 1.10,2013-02-04 17:02:00,
2013-02-04 12:17:00,25.1,12.0,29.95,South,184,6.0,-999.0,58,-99.99,,,0.00,weatherlink.com 1.10,2013-02-04 17:17:00,
2013-02-04 12:32:00,26.6,13.0,29.93,South,184,7.0,-999.0,56,-99.99,,,0.00,weatherlink.com 1.10,2013-02-04 17:32:00,
2013-02-04 12:47:00,25.8,13.0,29.93,SW,232,6.0,-999.0,58,-99.99,,,0.00,weatherlink.com 1.10,2013-02-04 17:47:00,
2013-02-04 13:02:00,25.8,14.0,29.93,WSW,253,3.0,-999.0,60,-99.99,,,0.00,weatherlink.com 1.10,2013-02-04 18:02:00,
2013-02-04 13:17:00,25.8,14.0,29.92,WSW,247,2.0,-999.0,61,-99.99,,,0.00,weatherlink.com 1.10,2013-02-04 18:17:00,
2013-02-04 13:32:00,26.3,14.0,29.91,South,188,0.0,-999.0,61,-99.99,,,0.00,weatherlink.com 1.10,2013-02-04 18:32:00,
2013-02-04 13:47:00,26.4,15.0,29.90,SW,215,2.0,-999.0,62,-99.99,,,0.00,weatherlink.com 1.10,2013-02-04 18:47:00,
2013-02-04 14:02:00,26.6,16.0,29.90,WSW,237,2.0,-999.0,64,-99.99,,,0.00,weatherlink.com 1.10,2013-02-04 19:02:00,
2013-02-04 14:17:00,26.6,16.0,29.90,SW,217,4.0,-999.0,65,-99.99,,,0.00,weatherlink.com 1.10,2013-02-04 19:17:00,
2013-02-04 14:32:00,26.9,17.0,29.89,SW,223,1.0,-999.0,66,-99.99,,,0.00,weatherlink.com 1.10,2013-02-04 19:32:00,
2013-02-04 14:47:00,27.0,17.0,29.89,SW,223,2.0,-999.0,67,-99.99,,,0.00,weatherlink.com 1.10,2013-02-04 19:47:00,
2013-02-04 15:02:00,26.4,18.0,29.89,South,191,3.0,-999.0,71,-99.99,,,0.00,weatherlink.com 1.10,2013-02-04 20:02:00,
2013-02-04 15:17:00,26.1,19.0,29.89,South,186,7.0,-999.0,74,-99.99,,,0.00,weatherlink.com 1.10,2013-02-04 20:17:00,
2013-02-04 15:32:00,25.8,20.0,29.88,South,186,0.0,-999.0,77,-99.99,,,0.00,weatherlink.com 1.10,2013-02-04 20:32:00,
2013-02-04 15:47:00,25.7,20.0,29.87,South,186,0.0,-999.0,80,-99.99,,,0.00,weatherlink.com 1.10,2013-02-04 20:47:00,
2013-02-04 16:02:00,25.7,21.0,29.87,South,186,0.0,-999.0,82,-99.99,,,0.00,weatherlink.com 1.10,2013-02-04 21:02:00,
2013-02-04 16:17:00,25.8,21.0,29.86,South,186,0.0,-999.0,83,-99.99,,,0.00,weatherlink.com 1.10,2013-02-04 21:17:00,
2013-02-04 16:32:00,26.0,22.0,29.85,South,186,0.0,-999.0,84,-99.99,,,0.00,weatherlink.com 1.10,2013-02-04 21:32:00,
2013-02-04 16:47:00,26.1,22.0,29.84,South,186,0.0,-999.0,85,-99.99,,,0.00,weatherlink.com 1.10,2013-02-04 21:47:00,
2013-02-04 17:02:00,26.6,23.0,29.84,South,182,0.0,-999.0,85,-99.99,,,0.00,weatherlink.com 1.10,2013-02-04 22:02:00,
2013-02-04 17:17:00,26.7,23.0,29.82,SSE,154,3.0,-999.0,86,-99.99,,,0.00,weatherlink.com 1.10,2013-02-04 22:17:00,
2013-02-04 17:32:00,27.0,23.0,29.82,South,182,0.0,-999.0,86,-99.99,,,0.00,weatherlink.com 1.10,2013-02-04 22:32:00,
2013-02-04 17:47:00,27.0,23.0,29.82,SSE,157,0.0,-999.0,86,-99.99,,,0.00,weatherlink.com 1.10,2013-02-04 22:47:00,
2013-02-04 18:02:00,27.2,24.0,29.82,SSE,157,0.0,-999.0,87,-99.99,,,0.00,weatherlink.com 1.10,2013-02-04 23:02:00,
2013-02-04 18:17:00,27.3,24.0,29.83,SSE,157,0.0,-999.0,88,-99.99,,,0.00,weatherlink.com 1.10,2013-02-04 23:17:00,
2013-02-04 18:32:00,27.6,25.0,29.83,South,188,1.0,-999.0,89,-99.99,,,0.00,weatherlink.com 1.10,2013-02-04 23:32:00,
2013-02-04 18:47:00,28.4,26.0,29.83,SSE,167,1.0,-999.0,89,-99.99,,,0.00,weatherlink.com 1.10,2013-02-04 23:47:00,
2013-02-04 19:02:00,28.8,26.0,29.83,South,185,3.0,-999.0,90,-99.99,,,0.00,weatherlink.com 1.10,2013-02-05 00:02:00,
2013-02-04 19:17:00,29.3,27.0,29.83,SE,138,5.0,-999.0,90,-99.99,,,0.00,weatherlink.com 1.10,2013-02-05 00:17:00,
2013-02-04 19:32:00,29.5,27.0,29.83,SSE,168,2.0,-999.0,91,-99.99,,,0.00,weatherlink.com 1.10,2013-02-05 00:32:00,
2013-02-04 19:47:00,30.0,28.0,29.83,South,172,6.0,-999.0,91,-99.99,,,0.00,weatherlink.com 1.10,2013-02-05 00:47:00,
2013-02-04 20:02:00,30.3,28.0,29.83,SSW,199,3.0,-999.0,91,-99.99,,,0.00,weatherlink.com 1.10,2013-02-05 01:02:00,
2013-02-04 20:17:00,30.4,28.0,29.83,SSW,199,3.0,-999.0,91,-99.99,,,0.00,weatherlink.com 1.10,2013-02-05 01:17:00,
2013-02-04 20:32:00,30.4,28.0,29.83,SSE,161,0.0,-999.0,91,-99.99,,,0.00,weatherlink.com 1.10,2013-02-05 01:32:00,
2013-02-04 20:47:00,30.3,28.0,29.83,WSW,253,0.0,-999.0,92,-99.99,,,0.00,weatherlink.com 1.10,2013-02-05 01:47:00,
2013-02-04 21:02:00,30.4,28.0,29.83,South,178,0.0,-999.0,92,-99.99,,,0.00,weatherlink.com 1.10,2013-02-05 02:02:00,
2013-02-04 21:17:00,30.6,29.0,29.83,SSE,161,1.0,-999.0,92,-99.99,,,0.00,weatherlink.com 1.10,2013-02-05 02:17:00,
2013-02-04 21:32:00,30.7,29.0,29.83,South,181,3.0,-999.0,92,-99.99,,,0.00,weatherlink.com 1.10,2013-02-05 02:32:00,
2013-02-04 21:47:00,30.9,29.0,29.82,SE,128,2.0,-999.0,92,-99.99,,,0.00,weatherlink.com 1.10,2013-02-05 02:47:00,
2013-02-04 22:02:00,30.9,29.0,29.82,SSE,152,3.0,-999.0,92,-99.99,,,0.00,weatherlink.com 1.10,2013-02-05 03:02:00,
2013-02-04 22:17:00,31.0,29.0,29.81,South,188,8.0,-999.0,92,-99.99,,,0.00,weatherlink.com 1.10,2013-02-05 03:17:00,
2013-02-04 22:32:00,31.2,29.0,29.81,SSW,212,7.0,-999.0,92,-99.99,,,0.00,weatherlink.com 1.10,2013-02-05 03:32:00,
2013-02-04 22:48:00,31.5,30.0,29.81,SW,220,1.0,-999.0,92,-99.99,,,0.00,weatherlink.com 1.10,2013-02-05 03:48:00,
2013-02-04 23:03:00,31.6,30.0,29.80,South,175,3.0,-999.0,92,-99.99,,,0.00,weatherlink.com 1.10,2013-02-05 04:03:00,
2013-02-04 23:18:00,31.8,30.0,29.80,South,174,2.0,-999.0,92,-99.99,,,0.00,weatherlink.com 1.10,2013-02-05 04:18:00,
2013-02-04 23:33:00,31.8,30.0,29.80,SW,226,1.0,-999.0,92,-99.99,,,0.00,weatherlink.com 1.10,2013-02-05 04:33:00,
2013-02-04 23:48:00,31.9,30.0,29.80,SW,217,2.0,-999.0,92,-99.99,,,0.00,weatherlink.com 1.10,2013-02-05 04:48:00,